Danbury, CT

11:15 PM EDT on August 29, 2016 (GMT -0400)
Danbury Municipal

Weather History for KDXR - April, 2012

Change the Weather History Date:

Tuesday, April 17, 2012

  Actual Average Record
Temperature  
Mean Temperature 66 °F -  
Max Temperature 75 °F 61 °F 91 °F (2002)
Min Temperature 55 °F 40 °F 25 °F (1962)
Cooling Degree Days 1    
Growing Degree Days 16 (Base 50)    
Moisture  
Dew Point 43 °F    
Average Humidity 45    
Maximum Humidity 93    
Minimum Humidity 23    
Precipitation  
Precipitation 0.00 in - - ()
Sea Level Pressure  
Sea Level Pressure 30.07 in    
Wind  
Wind Speed 7 mph (NNW)    
Max Wind Speed 14 mph    
Max Gust Speed 24 mph    
Visibility 10 miles    
Events      
Averages and records for this station are not official NWS values.
T = Trace of Precipitation, MM = Missing Value Source: NWS Daily Summary

Daily Weather History Graph

Daily Weather History Graph

Search for Another Location

Airport or City:

Trip Planner

Search our weather history database for the weather conditions in past years. The results will help you decide how hot, cold, wet, or windy it might be!

Date:

Astronomy

Apr. 17, 2012 Rise Set
Actual Time 6:10 AM EDT 7:36 PM EDT
Civil Twilight 5:41 AM EDT 8:05 PM EDT
Nautical Twilight 5:06 AM EDT 8:40 PM EDT
Astronomical Twilight 4:30 AM EDT 9:17 PM EDT
Moon 4:08 AM EDT (4/17) 4:25 PM EDT (4/17)
Length of Visible Light 14h 24m
Length of Day
13h 26m
Waning Crescent, 12% of the Moon is Illuminated
Apr 17
Waning Crescent
Apr 21
New
Apr 29
First Quarter
May 5
Full
May 12
Last Quarter

Hourly Weather History & Observations

Time (EDT) Temp. Dew Point Humidity Pressure Visibility Wind Dir Wind Speed Gust Speed Precip Events Conditions
12:53 AM 64.0 °F 57.0 °F 78% 29.92 in 10.0 mi North 3.5 mph - N/A   Clear
1:53 AM 71.1 °F 57.9 °F 63% 29.91 in 10.0 mi WSW 6.9 mph - N/A   Clear
2:53 AM 70.0 °F 57.9 °F 65% 29.91 in 10.0 mi West 3.5 mph - N/A   Clear
3:53 AM 68.0 °F 57.9 °F 70% 29.92 in 10.0 mi West 5.8 mph - N/A   Clear
4:53 AM 62.1 °F 57.0 °F 84% 29.96 in 10.0 mi NNW 5.8 mph - N/A   Clear
5:53 AM 57.0 °F 55.0 °F 93% 30.00 in 10.0 mi Calm Calm - N/A   Clear
6:53 AM 66.0 °F 54.0 °F 65% 30.04 in 10.0 mi North 5.8 mph - N/A   Clear
7:53 AM 66.9 °F 51.1 °F 57% 30.06 in 10.0 mi NW 12.7 mph - N/A   Clear
8:53 AM 66.0 °F 46.0 °F 48% 30.08 in 10.0 mi North 13.8 mph 19.6 mph N/A   Clear
9:53 AM 66.0 °F 43.0 °F 43% 30.11 in 10.0 mi NNW 9.2 mph 24.2 mph N/A   Clear
10:53 AM 68.0 °F 39.9 °F 36% 30.12 in 10.0 mi NNW 12.7 mph 19.6 mph N/A   Clear
11:53 AM 70.0 °F 39.0 °F 32% 30.12 in 10.0 mi NNW 9.2 mph - N/A   Clear
12:53 PM 72.0 °F 37.9 °F 29% 30.11 in 10.0 mi Variable 6.9 mph - N/A   Clear
1:31 PM 73.4 °F 35.6 °F 25% 30.11 in 10.0 mi WNW 6.9 mph 20.7 mph N/A   Clear
1:53 PM 73.9 °F 37.0 °F 26% 30.10 in 10.0 mi NNW 10.4 mph 17.3 mph N/A   Clear
2:53 PM 73.9 °F 37.0 °F 26% 30.08 in 10.0 mi West 8.1 mph 18.4 mph N/A   Clear
3:53 PM 75.9 °F 37.9 °F 25% 30.07 in 10.0 mi WNW 9.2 mph - N/A   Clear
4:53 PM 75.9 °F 36.0 °F 23% 30.07 in 10.0 mi NNW 8.1 mph - N/A   Clear
5:53 PM 75.0 °F 37.0 °F 25% 30.07 in 10.0 mi North 8.1 mph - N/A   Clear
6:53 PM 72.0 °F 36.0 °F 27% 30.07 in 10.0 mi NNW 8.1 mph - N/A   Clear
7:53 PM 68.0 °F 37.0 °F 32% 30.11 in 10.0 mi North 6.9 mph - N/A   Clear
8:53 PM 64.0 °F 36.0 °F 35% 30.15 in 10.0 mi NNW 8.1 mph 16.1 mph N/A   Clear
9:53 PM 60.1 °F 32.0 °F 35% 30.17 in 10.0 mi NNE 4.6 mph - N/A   Clear
10:53 PM 57.9 °F 33.1 °F 39% 30.18 in 10.0 mi North 6.9 mph - N/A   Clear
11:53 PM 55.0 °F 35.1 °F 47% 30.19 in 10.0 mi North 9.2 mph - N/A   Clear